This is the latest recevied weather packets stored in our database for station/object VE2XOX. If no packets are shown the sender has not sent any weather packets the latest 10 day(s).
| Time | Temp. | Humidity | Pressure | Rain* | Wind** | Luminosity | Snow |
|---|---|---|---|---|---|---|---|
| 1777827017 | 10.56° C | 37% | 1005.1 hPa | 0 mm | - | - | - |
| 1777826722 | 10.56° C | 37% | 1005.1 hPa | 0 mm | - | - | - |
| 1777826431 | 10.56° C | 36% | 1005.1 hPa | 0 mm | - | - | - |
| 1777826116 | 10.56° C | 37% | 1005.3 hPa | 0 mm | - | - | - |
| 1777825818 | 10° C | 35% | 1005.4 hPa | 0 mm | - | - | - |
| 1777825531 | 10° C | 37% | 1005.5 hPa | 0 mm | - | - | - |
| 1777825216 | 10° C | 37% | 1005.5 hPa | 0 mm | - | - | - |
| 1777824921 | 10.56° C | 35% | 1005.5 hPa | 0 mm | - | - | - |
| 1777824629 | 10.56° C | 36% | 1005.7 hPa | 0 mm | - | - | - |
| 1777824313 | 10° C | 35% | 1005.8 hPa | 0 mm | - | - | - |
| 1777824015 | 10° C | 35% | 1005.9 hPa | 0 mm | - | - | - |
| 1777823726 | 10° C | 35% | 1006 hPa | 0 mm | - | - | - |
| 1777823411 | 10° C | 38% | 1005.9 hPa | 0 mm | - | - | - |
| 1777823116 | 10° C | 37% | 1006 hPa | 0 mm | - | - | - |
| 1777822827 | 10° C | 38% | 1006.1 hPa | 0 mm | - | - | - |
| 1777822513 | 10° C | 38% | 1006.1 hPa | 0 mm | - | - | - |
| 1777822216 | 9.44° C | 39% | 1006.1 hPa | 0 mm | - | - | - |
| 1777821926 | 9.44° C | 37% | 1006.2 hPa | 0 mm | - | - | - |
| 1777821630 | 9.44° C | 38% | 1006.2 hPa | 0 mm | - | - | - |
| 1777821314 | 9.44° C | 39% | 1006.3 hPa | 0 mm | - | - | - |
| 1777821026 | 9.44° C | 38% | 1006.4 hPa | 0 mm | - | - | - |
| 1777820728 | 9.44° C | 38% | 1006.5 hPa | 0 mm | - | - | - |
| 1777820437 | 9.44° C | 40% | 1006.7 hPa | 0 mm | - | - | - |
| 1777820122 | 9.44° C | 41% | 1006.7 hPa | 0 mm | - | - | - |
| 1777819825 | 9.44° C | 42% | 1006.8 hPa | 0 mm | - | - | - |
* Rain latest hour (hover to see other rain measurements)
** Current wind speed in m/s (hover to see current wind gust speed)